Presure
153 135 120 114 114 110 110 108 112 114 109 118 115 146 148 131 157 114 162 240 180 124 130 164 176 134 240 425 544 443 428 393 450 424 373 348 357 347 337 304 292 266 289 207 188 211 167
132 134 172 109 116 106 114 115 111 112 113 139 173 147 138 141 173 197 134 165 150 135 125 205 170 132 425 421 481 465 427 408 405 437 362 343 339 347 341 293 285 264 267 284 222 212 125
136 129 128 137 112 118 108 111 109 111 110 112 152 152 149 126 110 186 221 149 148 134 128 139 145 133 199 152 422 502 432 408 405 420 356 331 341 342 323 303 288 274 270 285 248 226 198
140 169 130 149 158 118 109 115 110 105 107 120 145 147 119 152 153 156 189 99 143 150 159 149 143 136 427 144 416 478 458 400 395 376 348 326 331 339 324 293 281 269 263 264 251 244 208
121 135 126 119 128 112 117 116 106 107 137 128 145 126 149 144 178 190 202 132 144 138 161 161 162 134 141 413 260 447 507 401 390 367 370 320 328 336 328 289 283 264 278 261 255 249 242
122 121 124 126 127 122 118 120 106 127 111 137 152 139 149 169 141 190 129 165 145 150 144 160 155 286 400 405 267 458 386 388 377 367 375 315 321 321 313 305 286 258 272 197 254 250 245
121 123 121 125 127 116 122 125 122 128 143 138 145 140 120 217 126 188 222 148 134 134 161 149 159 138 149 432 179 526 375 360 361 380 329 299 317 378 320 287 157 254 256 256 281 298 246
124 123 124 123 127 123 117 100 123 138 137 149 136 138 139 139 101 203 218 134 147 135 151 155 144 434 143 448 415 495 379 361 356 400 334 301 313 346 356 286 284 270 273 266 265 261 248
111 118 152 125 125 127 126 130 134 115 135 150 175 141 128 146 197 168 162 143 140 149 148 149 149 158 151 141 248 372 396 370 352 370 314 301 301 317 351 288 297 287 283 261 284 267 257
132 116 127 127 133 128 126 131 101 132 109 134 150 140 130 135 164 172 149 133 136 135 140 142 154 291 322 133 142 381 380 377 345 338 314 301 308 352 329 338 277 280 280 269 273 274 260
236 138 144 132 124 199 123 127 130 130 135 133 141 148 158 128 166 184 193 146 132 145 158 157 147 308 159 134 149 147 346 375 331 327 317 306 318 316 320 336 291 277 280 256 258 264 263
189 184 181 132 134 164 133 133 122 135 124 136 141 128 147 200 169 143 189 143 164 148 137 163 139 205 159 417 130 142 149 352 331 319 315 313 311 310 314 289 318 287 273 270 264 265 274
246 129 208 183 132 228 136 127 129 134 141 134 142 147 133 124 148 177 180 149 136 146 150 140 139 151 164 346 381 131 149 164 329 330 325 329 304 301 299 281 276 310 290 275 275 272 268
188 200 277 131 135 120 140 105 124 128 137 150 142 150 130 130 164 167 165 148 138 140 135 123 167 172 364 143 329 119 136 346 243 317 327 307 297 293 297 283 333 268 286 304 276 270 274
183 183 232 164 145 134 173 124 137 155 139 128 148 144 137 145 132 146 168 111 138 133 121 133 138 203 377 349 341 322 349 317 321 267 321 298 294 289 286 292 289 298 278 276 307 278 273
170 187 191 269 150 130 157 132 133 158 142 158 150 155 155 139 140 161 179 123 147 185 139 144 143 144 294 160 309 335 319 320 306 278 279 298 291 292 288 289 301 294 285 285 300 304 297
199 192 263 264 223 195 132 141 135 138 146 139 139 133 129 162 150 151 141 213 140 139 121 136 136 133 136 264 341 330 324 304 324 315 304 303 294 290 291 296 281 308 293 241 270 271 277
369 182 235 207 254 124 131 132 139 138 141 149 141 153 159 143 142 181 146 157 167 165 129 135 141 130 155 152 352 276 327 293 296 321 307 155 291 297 302 290 306 299 311 260 254 265 276
185 188 217 245 207 203 176 128 148 141 141 147 142 126 129 140 172 161 213 169 178 142 134 138 146 150 150 367 363 286 332 324 305 305 275 302 304 314 288 294 294 293 292 300 274 267 263
174 196 217 229 205 203 201 132 133 137 184 148 137 140 134 152 165 158 154 195 166 120 139 134 118 143 133 166 299 317 240 327 324 294 304 283 287 289 277 282 295 303 300 294 258 282 277
169 189 202 253 204 224 215 126 132 221 138 131 194 157 131 128 145 167 148 170 179 160 144 151 122 135 132 144 205 139 350 116 262 281 265 290 266 263 278 282 272 282 299 294 297 282 287
190 244 225 181 231 211 227 159 139 140 148 151 195 120 118 144 156 119 137 160 165 156 150 136 137 157 197 123 112 159 367 345 332 325 326 287 274 291 279 297 296 306 273 272 284 274 280
176 212 198 237 206 228 230 218 142 146 176 147 187 147 113 145 193 141 189 163 166 156 144 106 151 176 110 124 117 169 248 281 244 329 325 327 308 305 286 284 270 260 277 266 266 265 263
187 238 206 205 206 206 217 235 236 146 186 138 168 123 135 154 187 152 211 162 221 152 166 120 142 128 125 128 153 174 162 237 252 341 327 349 333 318 297 280 276 275 280 276 270 291 268
181 200 203 195 211 230 229 225 249 173 195 142 207 128 134 128 189 142 159 165 220 164 166 166 129 159 136 106 129 125 289 121 373 138 157 131 335 342 332 330 312 276 265 272 274 266 256
205 102 183 217 207 202 134 233 237 218 214 141 150 129 201 158 205 152 155 173 131 156 168 114 128 124 142 103 158 145 172 189 176 282 273 334 325 313 301 311 309 315 302 296 295 297 292
212 181 222 192 201 205 167 229 229 201 202 195 202 132 150 144 177 157 152 134 190 150 161 130 133 159 125 121 126 125 144 226 147 305 289 256 315 329 315 305 295 271 278 299 307 299 286
194 194 208 202 202 210 211 218 215 192 171 121 122 176 185 154 158 188 152 159 208 153 158 163 150 118 156 124 172 162 104 185 166 229 270 276 356 347 331 318 301 287 279 273 268 261 263
214 179 226 191 216 214 210 243 132 192 203 121 206 150 218 139 146 223 124 169 202 120 148 171 131 117 107 167 170 100 100 161 193 166 252 281 286 376 345 325 306 300 290 279 276 267 261
Wind_Speed
43 41 39 35 33 30 27 28 28 32 32 38 38 43 44 33 37 27 33 81 45 32 36 67 68 41 48 42 7 21 26 22 25 49 82 80 84 95 101 98 98 96 93 86 82 86 78
41 43 53 36 35 30 31 31 27 29 37 43 56 40 40 44 46 54 25 36 42 49 40 71 63 40 38 34 22 23 25 32 32 42 79 79 83 92 97 98 96 94 97 93 100 89 42
43 44 43 47 37 37 28 29 27 29 35 35 39 40 43 43 16 48 73 46 56 41 44 48 49 42 43 52 28 12 25 34 33 35 81 78 81 89 94 98 97 96 96 90 107 96 87
47 56 44 45 46 39 30 33 28 26 31 39 40 40 42 47 42 34 51 24 59 64 65 53 48 43 35 48 23 13 25 38 39 44 75 75 79 83 91 89 92 92 98 98 105 105 91
47 46 45 43 44 34 36 35 29 30 46 41 39 39 41 36 50 50 57 35 55 48 65 63 62 38 48 29 39 21 19 39 49 57 70 73 74 79 87 93 95 93 92 100 101 103 101
49 48 47 46 46 43 38 39 32 41 36 38 37 39 39 48 35 49 45 29 51 60 49 61 58 35 25 27 35 14 37 39 53 56 63 72 75 77 85 94 90 98 89 54 101 102 100
55 52 50 49 46 40 42 43 33 40 43 36 36 37 26 70 28 50 72 38 48 42 61 51 64 39 45 13 45 8 44 42 42 58 67 71 71 59 79 85 39 96 99 92 88 82 94
59 57 52 51 49 44 37 29 34 40 43 37 33 33 31 31 24 60 61 42 40 48 58 59 50 38 40 9 18 28 50 45 48 57 67 69 68 64 69 88 95 100 101 96 91 94 98
46 55 62 53 51 45 43 45 46 34 40 39 46 32 35 31 53 35 31 38 47 52 52 51 52 59 37 42 24 16 49 45 44 55 60 67 69 70 69 86 91 96 96 87 91 87 97
69 54 59 54 53 46 42 44 28 36 25 30 37 32 28 32 38 38 28 42 43 41 43 44 56 42 48 34 42 19 24 38 49 56 62 62 62 48 66 74 83 86 89 85 84 84 93
109 63 42 59 45 54 40 41 41 35 39 32 33 32 37 35 36 44 39 35 38 39 48 57 46 47 58 30 31 38 32 32 49 53 58 57 54 55 59 64 77 77 79 83 83 85 90
76 61 61 58 51 55 46 43 39 41 33 31 32 29 31 53 37 35 40 34 46 41 38 46 32 51 34 31 30 33 35 34 38 45 52 51 49 51 56 63 61 73 78 81 84 87 87
59 63 76 49 51 73 47 39 38 39 41 28 33 31 26 36 25 39 36 25 39 38 40 36 33 49 59 30 29 30 29 27 33 31 40 36 42 47 52 60 67 67 75 79 82 83 80
68 61 82 57 55 39 46 30 33 33 36 40 32 32 25 23 35 43 30 25 31 40 34 11 44 55 26 24 22 30 25 35 1 28 31 30 32 40 44 55 49 66 69 75 74 75 77
75 67 61 59 55 53 41 39 39 38 36 25 36 27 25 25 29 29 33 12 31 33 11 37 37 60 17 20 16 6 17 14 20 4 26 30 35 41 46 48 55 54 61 63 67 68 70
70 69 66 77 51 50 42 46 41 41 41 39 38 28 33 26 23 27 32 12 27 35 35 36 39 44 37 41 18 7 7 8 11 12 14 28 33 37 41 46 43 38 56 59 60 62 65
76 69 75 77 65 43 46 53 43 40 44 28 26 25 28 30 23 20 18 46 26 33 9 35 32 29 26 55 10 5 5 11 10 16 18 23 27 31 34 36 29 39 35 51 62 61 62
82 69 72 65 63 42 47 45 46 40 33 38 26 36 34 22 21 33 12 20 21 31 29 40 40 24 55 52 5 19 1 4 15 11 16 23 19 24 26 33 29 36 33 57 56 57 59
65 71 64 60 59 49 50 40 48 42 30 37 28 25 28 21 33 28 39 30 33 11 28 38 36 30 53 18 3 5 7 6 14 15 12 17 18 22 28 27 31 34 38 36 41 55 58
60 70 67 61 61 55 48 43 42 37 36 35 22 30 24 23 27 27 19 30 24 16 23 32 7 31 26 53 10 12 8 11 12 19 18 13 25 23 28 30 26 32 35 40 45 43 50
55 67 68 69 60 49 48 36 36 38 28 25 30 29 20 26 21 24 17 31 35 11 19 16 23 42 29 49 48 35 13 16 8 12 8 23 22 17 31 29 35 32 33 34 35 46 41
61 71 65 56 47 50 45 47 45 35 38 39 31 27 20 20 30 13 22 26 24 21 14 26 22 39 52 17 6 49 17 14 16 18 22 25 24 30 34 23 25 24 37 37 34 41 40
57 71 65 62 60 48 46 43 46 30 33 38 27 32 23 24 26 17 29 26 29 21 20 17 13 38 15 20 8 38 49 48 11 20 22 29 29 30 33 36 37 31 39 42 44 51 53
66 76 64 64 62 58 48 45 42 43 35 24 26 27 19 27 28 26 29 26 30 13 30 24 9 23 36 38 32 47 48 36 19 24 22 33 37 30 35 36 41 43 43 43 46 34 50
53 63 51 54 55 49 46 44 41 35 37 27 32 25 21 21 28 19 25 30 24 28 30 13 27 26 19 11 33 15 66 7 23 29 16 34 27 35 38 34 32 43 43 44 47 50 49
70 19 53 56 53 48 23 41 43 41 38 23 30 24 28 26 28 26 22 29 17 19 34 21 31 34 29 13 21 23 42 46 37 49 42 24 26 26 26 29 30 32 37 41 44 42 44
76 58 66 58 57 52 38 40 41 36 38 36 33 23 23 22 28 29 21 15 19 19 30 29 23 38 28 33 30 32 29 66 32 59 54 42 19 30 30 29 29 27 37 37 36 31 34
66 57 69 64 59 55 49 41 44 37 29 26 25 28 29 28 20 26 23 29 23 19 27 35 17 22 24 25 39 26 13 52 41 63 60 50 27 34 33 32 30 32 38 40 40 38 39
74 38 71 45 63 57 52 44 27 39 40 25 37 25 32 22 23 25 21 29 25 16 22 38 27 21 18 40 43 13 14 42 52 47 66 72 54 39 34 34 31 35 40 42 43 43 45
Wind_Direction
271 254 253 257 261 269 274 286 292 297 304 310 312 304 310 305 317 293 321 335 312 352 336 313 320 329 334 346 275 219 212 209 199 197 195 199 198 199 198 200 204 212 209 215 216 220 217
250 252 278 262 263 274 273 277 289 298 300 298 310 306 312 314 325 329 306 310 307 341 359 336 327 333 346 345 346 217 214 196 193 198 193 196 199 198 195 201 204 209 210 210 220 216 220
250 249 250 278 264 266 276 278 290 299 301 308 302 308 309 312 300 329 333 305 305 320 340 343 337 336 338 334 354 231 206 187 187 178 193 193 198 198 197 197 200 206 210 210 217 218 215
254 273 253 264 276 265 272 273 288 301 303 305 301 304 314 313 318 323 324 286 310 311 317 337 339 340 347 336 352 342 195 179 165 181 191 192 197 197 195 197 200 204 208 208 214 218 215
252 253 253 255 259 269 269 272 292 297 308 301 302 308 309 314 321 329 333 318 311 329 316 329 329 342 339 347 335 339 191 173 167 185 189 189 196 196 194 196 200 202 210 210 212 216 217
249 252 252 256 258 262 266 273 292 287 294 299 301 306 313 321 313 329 322 306 310 313 340 328 342 350 343 349 336 291 158 143 167 185 188 186 194 194 190 194 199 205 203 212 210 216 217
250 249 253 253 256 265 269 274 279 288 288 298 301 308 310 316 305 331 329 303 321 336 320 345 337 347 346 341 343 166 166 173 164 177 183 190 192 193 190 196 207 209 214 215 212 213 219
250 253 252 255 256 261 268 292 279 281 290 291 302 308 315 314 296 327 329 317 317 332 324 332 348 360 358 41 127 151 170 175 176 160 183 191 193 191 192 196 200 205 209 214 213 213 219
267 260 263 254 257 258 265 270 276 286 288 294 301 305 305 312 319 335 325 303 318 313 327 342 352 346 2 358 3 93 165 174 164 157 182 191 193 193 196 198 200 206 209 217 216 213 217
251 269 253 256 252 257 263 268 289 282 293 300 294 304 307 308 319 329 299 320 318 335 343 357 335 357 3 360 352 139 141 168 169 171 185 194 196 192 197 198 204 208 212 216 217 216 219
269 251 267 253 262 272 264 269 273 281 283 295 298 297 305 303 322 327 331 298 324 327 325 326 334 358 349 3 358 355 134 148 172 179 187 196 196 196 198 202 205 208 212 214 219 218 219
256 247 255 256 255 260 258 262 274 274 287 291 295 292 311 309 318 310 325 300 335 312 334 344 0 359 351 153 356 353 0 162 178 182 190 197 195 196 201 200 202 207 212 214 216 221 218
261 256 259 245 258 268 257 266 270 275 275 286 291 296 297 302 326 327 329 301 308 313 332 335 0 348 342 31 169 354 359 3 175 180 197 196 195 197 201 202 207 206 210 215 219 220 223
238 243 249 259 255 269 260 273 270 277 280 274 288 291 289 303 311 314 334 287 312 314 334 350 2 344 16 344 40 341 357 182 255 199 204 194 196 199 203 206 209 211 213 214 220 224 225
239 236 243 248 251 257 258 272 269 270 276 272 281 292 288 307 317 311 331 322 308 319 350 343 350 345 23 15 35 47 177 154 179 241 200 189 193 199 202 207 211 214 216 219 221 224 227
244 234 232 239 249 261 253 269 272 264 273 275 279 285 284 300 311 318 330 302 289 328 317 326 336 344 11 4 12 75 148 161 168 182 201 191 196 202 206 210 212 213 214 218 221 223 225
233 229 224 233 230 229 260 257 272 270 269 280 276 281 282 301 315 325 309 327 298 306 331 322 340 360 21 9 13 16 87 134 187 190 191 198 201 206 208 215 217 215 220 222 222 222 227
213 239 221 218 229 259 256 263 265 270 272 273 278 282 288 284 308 313 314 332 333 317 326 318 322 13 339 351 238 2 353 222 167 208 198 356 201 211 215 214 217 216 218 222 226 226 229
232 233 225 216 218 220 245 262 256 271 270 275 278 266 284 286 301 313 322 333 334 335 309 311 319 1 334 358 276 279 254 230 184 174 265 190 196 206 206 213 216 218 222 222 230 227 229
236 227 216 209 220 221 222 261 265 272 256 271 258 282 273 302 297 313 329 331 338 284 294 304 350 350 10 357 348 327 314 244 223 210 189 208 189 192 205 206 210 221 219 223 233 227 230
232 229 219 209 215 223 223 258 265 232 265 256 256 278 267 283 299 310 315 323 324 344 286 301 305 329 336 338 3 2 242 341 293 251 232 211 217 203 209 209 216 215 216 218 216 227 228
221 194 206 234 209 210 224 241 256 262 263 266 251 261 277 290 295 289 296 326 345 300 249 299 313 337 351 332 295 349 237 244 249 254 245 231 244 209 214 218 208 207 217 217 219 224 225
224 205 216 204 209 213 222 222 248 234 247 266 246 262 277 288 290 301 308 319 320 318 269 294 318 336 285 337 218 358 7 13 307 250 246 244 231 221 223 215 232 215 215 230 226 228 231
215 189 218 219 216 213 215 218 220 256 229 252 254 252 267 289 282 299 308 315 326 305 331 311 300 316 320 324 5 12 358 6 264 242 248 238 244 238 236 239 232 230 226 222 229 229 232
220 211 206 219 210 206 206 216 218 224 223 252 237 253 266 268 273 294 312 311 320 330 322 333 283 340 318 297 322 342 24 289 257 357 335 344 246 241 243 244 242 241 253 243 238 240 253
210 211 226 194 205 215 227 218 218 218 220 245 263 250 250 283 280 296 309 305 260 331 328 300 275 293 305 284 13 358 11 6 349 11 13 255 251 254 256 245 244 246 244 245 246 247 252
197 221 196 218 212 210 209 222 220 227 221 229 235 252 266 276 279 291 309 290 286 306 328 252 290 330 294 313 311 337 332 350 356 16 12 16 295 255 258 258 257 261 257 250 247 245 242
206 211 204 213 214 205 209 218 217 226 230 234 244 257 252 276 278 284 305 305 292 267 319 325 249 282 291 288 336 341 321 356 2 8 12 11 277 261 264 260 255 250 254 256 258 257 251
202 222 189 227 201 204 209 212 212 230 223 240 238 264 254 268 287 275 277 304 284 291 270 316 252 276 309 331 335 304 309 346 353 356 11 11 9 256 265 262 261 256 252 254 255 255 256